TimePST,TemperatureF,Dew PointF,Humidity,Sea Level PressureIn,VisibilityMPH,Wind Direction,Wind SpeedMPH,Gust SpeedMPH,PrecipitationIn,Events,Conditions,WindDirDegrees,DateUTC
12:58 AM,41.4,40.3,96,30.10,10.0,South,9.2,-,N/A,,Overcast,180,2013-02-22 08:58:00
1:26 AM,41.0,39.2,93,30.08,10.0,SSW,9.2,-,N/A,Rain,Light Rain,200,2013-02-22 09:26:00
1:36 AM,41.0,39.2,93,30.08,9.0,SSW,6.9,-,N/A,Rain,Light Rain,200,2013-02-22 09:36:00
1:56 AM,41.0,41.0,100,30.08,10.0,South,8.1,-,N/A,Rain,Light Rain,180,2013-02-22 09:56:00
1:58 AM,41.4,40.6,97,30.10,10.0,South,8.1,-,0.02,Rain,Light Rain,180,2013-02-22 09:58:00
2:01 AM,41.0,41.0,100,30.07,10.0,South,6.9,-,N/A,,Mostly Cloudy,180,2013-02-22 10:01:00
2:06 AM,41.0,41.0,100,30.07,10.0,South,6.9,-,N/A,Rain,Light Rain,170,2013-02-22 10:06:00
2:34 AM,41.0,41.0,100,30.06,10.0,South,8.1,-,N/A,,Mostly Cloudy,180,2013-02-22 10:34:00
2:38 AM,41.0,41.0,100,30.06,10.0,South,6.9,-,N/A,Rain,Light Rain,180,2013-02-22 10:38:00
2:48 AM,41.0,41.0,100,30.05,10.0,South,6.9,-,N/A,Rain,Light Rain,180,2013-02-22 10:48:00
2:58 AM,40.5,40.1,99,30.08,10.0,South,5.8,-,0.01,Rain,Light Rain,180,2013-02-22 10:58:00
3:10 AM,41.0,39.2,93,30.05,10.0,South,6.9,-,N/A,,Overcast,170,2013-02-22 11:10:00
3:19 AM,41.0,39.2,93,30.04,10.0,South,8.1,-,N/A,Rain,Light Rain,170,2013-02-22 11:19:00
3:34 AM,41.0,41.0,100,30.04,10.0,South,8.1,-,N/A,,Overcast,190,2013-02-22 11:34:00
3:39 AM,41.0,41.0,100,30.03,10.0,South,8.1,-,N/A,,Light Drizzle,180,2013-02-22 11:39:00
3:49 AM,41.0,41.0,100,30.02,10.0,South,8.1,-,N/A,Rain,Light Rain,170,2013-02-22 11:49:00
3:58 AM,40.3,40.1,99,30.04,10.0,South,8.1,-,0.00,Rain,Light Rain,170,2013-02-22 11:58:00
3:59 AM,41.0,39.2,93,30.01,10.0,SSE,8.1,-,N/A,,Overcast,160,2013-02-22 11:59:00
4:03 AM,41.0,39.2,93,30.01,10.0,SSE,10.4,-,N/A,,Light Drizzle,160,2013-02-22 12:03:00
4:08 AM,41.0,41.0,100,30.00,10.0,SSE,8.1,-,N/A,,Light Drizzle,150,2013-02-22 12:08:00
4:13 AM,41.0,41.0,100,30.00,10.0,SSE,8.1,-,N/A,,Overcast,150,2013-02-22 12:13:00
4:58 AM,40.5,40.3,99,30.00,10.0,South,9.2,-,0.00,,Overcast,170,2013-02-22 12:58:00
5:13 AM,41.0,41.0,100,29.98,10.0,South,10.4,-,N/A,,Overcast,170,2013-02-22 13:13:00
5:18 AM,41.0,41.0,100,29.98,10.0,South,9.2,-,N/A,,Overcast,170,2013-02-22 13:18:00
5:41 AM,41.0,41.0,100,29.96,10.0,South,15.0,-,N/A,Rain,Light Rain,180,2013-02-22 13:41:00
5:51 AM,41.0,41.0,100,29.95,10.0,South,12.7,-,N/A,Rain,Light Rain,170,2013-02-22 13:51:00
5:56 AM,41.0,41.0,100,29.95,10.0,South,11.5,-,N/A,Rain,Light Rain,170,2013-02-22 13:56:00
5:58 AM,41.5,40.6,97,29.97,10.0,South,11.5,-,0.00,Rain,Light Rain,180,2013-02-22 13:58:00
6:01 AM,41.0,41.0,100,29.95,10.0,South,10.4,-,N/A,,Mostly Cloudy,180,2013-02-22 14:01:00
6:06 AM,41.0,41.0,100,29.95,10.0,South,11.5,-,N/A,,Mostly Cloudy,180,2013-02-22 14:06:00
6:35 AM,42.8,41.0,93,29.91,10.0,South,12.7,-,N/A,,Scattered Clouds,180,2013-02-22 14:35:00
6:58 AM,42.3,39.9,91,29.92,10.0,South,13.8,-,0.00,Rain,Light Rain,180,2013-02-22 14:58:00
7:02 AM,42.8,39.2,87,29.90,10.0,South,12.7,-,N/A,,Mostly Cloudy,180,2013-02-22 15:02:00
7:17 AM,42.8,39.2,87,29.89,10.0,South,15.0,-,N/A,,Mostly Cloudy,180,2013-02-22 15:17:00
7:37 AM,42.8,39.2,87,29.89,10.0,South,12.7,-,N/A,Rain,Light Rain,190,2013-02-22 15:37:00
7:42 AM,44.6,39.2,81,29.89,10.0,South,13.8,-,N/A,Rain,Light Rain,190,2013-02-22 15:42:00
7:58 AM,44.2,39.6,84,29.91,9.0,SSW,17.3,26.5,0.01,,Overcast,200,2013-02-22 15:58:00
8:08 AM,42.8,41.0,93,29.89,8.0,SSW,17.3,23.0,N/A,,Overcast,200,2013-02-22 16:08:00
8:33 AM,42.8,41.0,93,29.88,6.0,SSW,20.7,25.3,N/A,,Overcast,200,2013-02-22 16:33:00
8:38 AM,42.8,41.0,93,29.88,7.0,South,19.6,25.3,N/A,,Overcast,190,2013-02-22 16:38:00
8:53 AM,42.8,41.0,93,29.87,9.0,South,16.1,24.2,N/A,,Overcast,190,2013-02-22 16:53:00
8:58 AM,42.3,40.6,94,29.88,8.0,South,15.0,24.2,0.09,,Overcast,190,2013-02-22 16:58:00
9:08 AM,42.8,41.0,93,29.86,6.0,South,12.7,-,N/A,,Overcast,190,2013-02-22 17:08:00
9:18 AM,42.8,41.0,93,29.85,8.0,South,12.7,-,N/A,,Overcast,190,2013-02-22 17:18:00
9:23 AM,42.8,41.0,93,29.85,9.0,South,15.0,-,N/A,,Overcast,190,2013-02-22 17:23:00
9:58 AM,42.3,41.0,95,29.86,9.0,South,18.4,26.5,0.08,,Overcast,190,2013-02-22 17:58:00
10:13 AM,42.8,41.0,93,29.83,10.0,South,20.7,29.9,N/A,,Overcast,190,2013-02-22 18:13:00
10:16 AM,42.8,41.0,93,29.82,9.0,South,20.7,29.9,N/A,,Overcast,190,2013-02-22 18:16:00
10:26 AM,42.8,41.0,93,29.83,10.0,SSW,18.4,26.5,N/A,,Overcast,200,2013-02-22 18:26:00
10:58 AM,42.3,40.6,94,29.85,8.0,South,20.7,34.5,0.07,,Overcast,190,2013-02-22 18:58:00
11:11 AM,42.8,39.2,87,29.82,7.0,South,27.6,35.7,N/A,,Overcast,190,2013-02-22 19:11:00
11:31 AM,41.0,39.2,93,29.81,8.0,South,20.7,33.4,N/A,,Overcast,190,2013-02-22 19:31:00
11:41 AM,41.0,39.2,93,29.81,8.0,South,23.0,32.2,N/A,,Overcast,180,2013-02-22 19:41:00
11:51 AM,41.0,41.0,100,29.80,9.0,South,23.0,29.9,N/A,,Overcast,190,2013-02-22 19:51:00
11:58 AM,41.9,40.1,93,29.82,10.0,South,20.7,29.9,0.08,,Overcast,190,2013-02-22 19:58:00
12:27 PM,42.8,41.0,93,29.78,10.0,South,20.7,26.5,N/A,,Overcast,190,2013-02-22 20:27:00
12:43 PM,42.8,41.0,93,29.78,10.0,South,18.4,26.5,N/A,,Overcast,190,2013-02-22 20:43:00
12:46 PM,42.8,41.0,93,29.78,10.0,South,21.9,28.8,N/A,,Overcast,190,2013-02-22 20:46:00
12:58 PM,42.1,40.6,95,29.80,7.0,South,19.6,28.8,0.08,,Overcast,190,2013-02-22 20:58:00
12:59 PM,42.8,41.0,93,29.78,8.0,South,20.7,28.8,N/A,,Overcast,190,2013-02-22 20:59:00
1:44 PM,42.8,41.0,93,29.75,10.0,South,21.9,32.2,N/A,Rain,Light Rain,190,2013-02-22 21:44:00
1:49 PM,42.8,41.0,93,29.74,10.0,South,21.9,28.8,N/A,Rain,Light Rain,190,2013-02-22 21:49:00
1:54 PM,42.8,41.0,93,29.75,10.0,South,21.9,28.8,N/A,Rain,Light Rain,190,2013-02-22 21:54:00
1:55 PM,42.8,41.0,93,29.74,10.0,South,25.3,32.2,N/A,,Mostly Cloudy,190,2013-02-22 21:55:00
1:58 PM,43.2,41.4,93,29.76,10.0,South,28.8,34.5,0.02,,Mostly Cloudy,190,2013-02-22 21:58:00
2:08 PM,42.8,41.0,93,29.74,10.0,South,23.0,35.7,N/A,,Mostly Cloudy,190,2013-02-22 22:08:00
2:10 PM,42.8,41.0,93,29.74,10.0,South,23.0,35.7,N/A,Rain,Light Rain,190,2013-02-22 22:10:00
2:23 PM,42.8,41.0,93,29.73,10.0,South,21.9,34.5,N/A,,Overcast,190,2013-02-22 22:23:00
2:36 PM,42.8,41.0,93,29.74,10.0,South,21.9,32.2,N/A,Rain,Light Rain,190,2013-02-22 22:36:00
2:37 PM,42.8,41.0,93,29.74,9.0,South,20.7,32.2,N/A,Rain,Light Rain,190,2013-02-22 22:37:00
2:42 PM,42.8,41.0,93,29.75,5.0,South,17.3,32.2,N/A,Rain,Light Rain,190,2013-02-22 22:42:00
2:47 PM,42.8,41.0,93,29.75,3.0,SSW,18.4,26.5,N/A,,Overcast,200,2013-02-22 22:47:00
2:52 PM,42.8,41.0,93,29.75,3.0,SSW,18.4,26.5,N/A,,Overcast,200,2013-02-22 22:52:00
2:58 PM,42.8,42.1,97,29.78,4.0,SSW,13.8,24.2,0.01,Rain,Light Rain,200,2013-02-22 22:58:00
3:03 PM,42.8,42.8,100,29.75,6.0,SSW,11.5,19.6,N/A,Rain,Light Rain,200,2013-02-22 23:03:00
3:15 PM,42.8,42.8,100,29.75,10.0,SSW,17.3,25.3,N/A,,Overcast,200,2013-02-22 23:15:00
3:20 PM,44.6,42.8,93,29.75,10.0,South,15.0,25.3,N/A,,Mostly Cloudy,190,2013-02-22 23:20:00
3:30 PM,44.6,44.6,100,29.76,10.0,South,18.4,25.3,N/A,,Mostly Cloudy,190,2013-02-22 23:30:00
3:35 PM,44.6,42.8,93,29.76,10.0,South,19.6,28.8,N/A,,Mostly Cloudy,190,2013-02-22 23:35:00
3:40 PM,44.6,42.8,93,29.76,10.0,South,16.1,28.8,N/A,,Mostly Cloudy,190,2013-02-22 23:40:00
3:44 PM,44.6,42.8,93,29.77,10.0,SSW,18.4,28.8,N/A,,Mostly Cloudy,200,2013-02-22 23:44:00
3:54 PM,44.6,42.8,93,29.77,10.0,SSW,19.6,23.0,N/A,,Overcast,210,2013-02-22 23:54:00
3:58 PM,44.4,43.0,95,29.80,10.0,SSW,17.3,23.0,0.01,,Overcast,210,2013-02-22 23:58:00
4:38 PM,46.4,39.2,76,29.78,10.0,SW,18.4,26.5,N/A,,Mostly Cloudy,230,2013-02-23 00:38:00
4:58 PM,44.4,38.3,79,29.80,10.0,SW,11.5,23.0,N/A,,Scattered Clouds,220,2013-02-23 00:58:00
5:06 PM,44.6,39.2,81,29.79,10.0,SW,15.0,-,N/A,Rain,Light Rain,220,2013-02-23 01:06:00
5:16 PM,42.8,37.4,81,29.80,6.0,SW,27.6,34.5,N/A,Rain,Light Rain,230,2013-02-23 01:16:00
5:29 PM,41.0,37.4,87,29.80,10.0,SW,18.4,-,N/A,,Overcast,220,2013-02-23 01:29:00
5:58 PM,40.6,36.9,86,29.83,10.0,SW,18.4,29.9,0.01,,Scattered Clouds,230,2013-02-23 01:58:00
6:50 PM,39.2,37.4,93,29.83,10.0,SW,13.8,-,N/A,Rain,Light Rain,220,2013-02-23 02:50:00
6:58 PM,39.4,36.5,89,29.85,10.0,SW,20.7,28.8,0.00,Rain,Light Rain,230,2013-02-23 02:58:00
7:13 PM,39.2,35.6,87,29.84,10.0,SSW,17.3,36.8,N/A,,Partly Cloudy,210,2013-02-23 03:13:00
7:33 PM,37.4,33.8,87,29.86,10.0,SW,12.7,-,N/A,,Mostly Cloudy,220,2013-02-23 03:33:00
7:34 PM,39.2,33.8,81,29.85,10.0,SW,13.8,20.7,N/A,Rain,Light Rain,230,2013-02-23 03:34:00
7:43 PM,39.2,33.8,81,29.86,10.0,SW,15.0,21.9,N/A,,Mostly Cloudy,230,2013-02-23 03:43:00
7:48 PM,39.2,33.8,81,29.86,10.0,SW,18.4,25.3,N/A,,Scattered Clouds,220,2013-02-23 03:48:00
7:58 PM,38.3,34.7,87,29.88,10.0,SSW,15.0,-,0.00,,Partly Cloudy,210,2013-02-23 03:58:00
8:58 PM,37.0,33.8,88,29.89,10.0,SW,12.7,-,N/A,,Clear,220,2013-02-23 04:58:00
9:58 PM,37.8,34.9,89,29.92,10.0,SSW,13.8,21.9,N/A,,Clear,210,2013-02-23 05:58:00
10:43 PM,37.4,35.6,93,29.93,10.0,South,10.4,-,N/A,,Mostly Cloudy,190,2013-02-23 06:43:00
10:56 PM,37.4,35.6,93,29.93,10.0,South,10.4,-,N/A,,Mostly Cloudy,180,2013-02-23 06:56:00
10:58 PM,37.4,35.6,93,29.95,10.0,South,10.4,-,N/A,,Mostly Cloudy,190,2013-02-23 06:58:00
11:08 PM,37.4,35.6,93,29.93,10.0,SSW,12.7,-,N/A,,Mostly Cloudy,210,2013-02-23 07:08:00
11:20 PM,37.4,35.6,93,29.93,10.0,SSW,16.1,-,N/A,Rain,Light Rain,210,2013-02-23 07:20:00
11:25 PM,37.4,35.6,93,29.94,10.0,SSW,16.1,-,N/A,Rain,Light Rain,210,2013-02-23 07:25:00
11:33 PM,37.4,35.6,93,29.94,10.0,SSW,13.8,-,N/A,,Mostly Cloudy,210,2013-02-23 07:33:00
11:58 PM,37.2,36.0,95,29.96,10.0,South,15.0,-,0.00,,Partly Cloudy,190,2013-02-23 07:58:00